Lander, WY

7:12 PM MST on December 15, 2017 (GMT -0700)
Hunt

Weather History for KLND - July, 2013

Change the Weather History Date:

Saturday, July 20, 2013

  Actual Average Record
Temperature  
Mean Temperature 78 °F 72 °F  
Max Temperature 96 °F 88 °F 98 °F (1960)
Min Temperature 59 °F 57 °F 40 °F (1902)
Degree Days  
Heating Degree Days 0 0  
Month to date heating degree days 0 11  
Since 1 June heating degree days 54 137  
Since 1 July heating degree days 0 11  
Cooling Degree Days 13 7  
Month to date cooling degree days 209 124  
Year to date cooling degree days 332 193  
Since 1 June cooling degree days 323 188  
Growing Degree Days 26 (Base 50)    
Moisture  
Dew Point 36 °F    
Average Humidity 28    
Maximum Humidity 46    
Minimum Humidity 10    
Precipitation  
Precipitation 0.00 in 0.03 in 0.96 in (1990)
Month to date precipitation 0.27 0.45  
Year to date precipitation 7.84 7.94  
Snow  
Snow 0.00 in 0.00 in - ()
Month to date snowfall 0.0 0.0  
Since 1 June snowfall 0.0 0.1  
Since 1 July snowfall 0.0 0.0  
Snow Depth 0.00 in    
Sea Level Pressure  
Sea Level Pressure 29.79 in    
Wind  
Wind Speed 7 mph (West)    
Max Wind Speed 16 mph    
Max Gust Speed 18 mph    
Visibility 10 miles    
Events      
T = Trace of Precipitation, MM = Missing Value Source: NWS Daily Summary

Daily Weather History Graph

Daily Weather History Graph

Search for Another Location

Airport or City:

Trip Planner

Search our weather history database for the weather conditions in past years. The results will help you decide how hot, cold, wet, or windy it might be!

Date:

Astronomy

Jul. 20, 2013 Rise Set
Actual Time 5:54 AM MDT 8:47 PM MDT
Civil Twilight 5:21 AM MDT 9:20 PM MDT
Nautical Twilight 4:38 AM MDT 10:02 PM MDT
Astronomical Twilight 3:49 AM MDT 10:51 PM MDT
Moon 6:53 PM MDT (7/20) 3:38 AM MDT (7/20)
Length of Visible Light 15h 59m
Length of Day
14h 52m
Waxing Gibbous, 94% of the Moon is Illuminated
Jul 20
Waxing Gibbous
Jul 22
Full
Jul 29
Last Quarter
Aug 6
New
Aug 14
First Quarter

Hourly Weather History & Observations

Time (MDT) Temp. Dew Point Humidity Pressure Visibility Wind Dir Wind Speed Gust Speed Precip Events Conditions
12:53 AM 71.1 °F 37.9 °F 30% 29.87 in 10.0 mi WSW 11.5 mph - N/A   Clear
1:53 AM 69.1 °F 37.9 °F 32% 29.87 in 10.0 mi WSW 13.8 mph - N/A   Clear
2:53 AM 71.1 °F 37.9 °F 30% 29.86 in 10.0 mi WSW 15.0 mph - N/A   Clear
3:53 AM 64.0 °F 39.9 °F 41% 29.86 in 10.0 mi SSW 3.5 mph - N/A   Clear
4:53 AM 66.0 °F 37.0 °F 34% 29.85 in 10.0 mi SSW 4.6 mph - N/A   Clear
5:53 AM 63.0 °F 39.0 °F 41% 29.86 in 10.0 mi Calm Calm - N/A   Clear
6:53 AM 60.1 °F 39.9 °F 47% 29.87 in 10.0 mi SW 3.5 mph - N/A   Clear
7:53 AM 66.0 °F 37.0 °F 34% 29.88 in 10.0 mi SSE 3.5 mph - N/A   Clear
8:53 AM 73.0 °F 37.9 °F 28% 29.88 in 10.0 mi NNW 5.8 mph - N/A   Clear
9:53 AM 77.0 °F 37.0 °F 24% 29.86 in 10.0 mi SSE 3.5 mph - N/A   Clear
10:53 AM 81.0 °F 37.9 °F 21% 29.83 in 10.0 mi ESE 5.8 mph - N/A   Clear
11:53 AM 86.0 °F 39.0 °F 19% 29.80 in 10.0 mi North 10.4 mph - N/A   Clear
12:53 PM 88.0 °F 37.9 °F 17% 29.77 in 10.0 mi North 8.1 mph - N/A   Clear
1:53 PM 91.0 °F 37.9 °F 15% 29.74 in 10.0 mi NNE 9.2 mph - N/A   Clear
2:53 PM 93.9 °F 34.0 °F 12% 29.70 in 10.0 mi North 8.1 mph - N/A   Clear
3:53 PM 93.9 °F 30.0 °F 10% 29.70 in 10.0 mi NNE 6.9 mph - N/A   Clear
4:53 PM 93.9 °F 30.0 °F 10% 29.68 in 10.0 mi Variable 4.6 mph - N/A   Clear
5:53 PM 93.9 °F 28.0 °F 10% 29.66 in 10.0 mi Variable 4.6 mph - N/A   Clear
6:53 PM 91.9 °F 35.1 °F 13% 29.68 in 10.0 mi North 5.8 mph - N/A   Clear
7:53 PM 86.0 °F 34.0 °F 16% 29.69 in 10.0 mi NW 8.1 mph - N/A   Clear
8:53 PM 77.0 °F 36.0 °F 23% 29.72 in 10.0 mi WNW 5.8 mph - N/A   Clear
9:53 PM 75.9 °F 35.1 °F 23% 29.75 in 10.0 mi West 5.8 mph - N/A   Clear
10:53 PM 73.0 °F 35.1 °F 25% 29.77 in 10.0 mi WSW 9.2 mph - N/A   Clear
11:53 PM 71.1 °F 34.0 °F 26% 29.77 in 10.0 mi WSW 9.2 mph - N/A   Clear